This demonstration page uses our WeatherBlox Daily Observations layout. Learn more.

Left ArrowRight Arrow

Hourly Observations for June 25, 2017

Temp ( °F °C ) Dew Point ( °F °C ) Humidity (%) Winds ( mph kmh ) Pressure ( in mb ) Visibility ( mi km ) Precip ( " mm )
12:52 am 00:52 Clear 60 15.6 54 12.2 80 80 S 3 6 30.21 1023 10 16 0.00 0.00
1:52 am 01:52 Clear 61 16.1 54 12.2 78 78 Calm 30.21 1023 10 16 0.00 0.00
2:52 am 02:52 Clear 61 16.1 56 13.3 84 84 S 3 6 30.21 1023 10 16 0.00 0.00
3:52 am 03:52 Clear 61 16.1 54 12.2 78 78 SSW 3 6 30.22 1023 10 16 0.00 0.00
4:52 am 04:52 Partly Cloudy 61 16.1 54 12.2 78 78 SSW 5 7 30.22 1024 10 16 0.00 0.00
5:52 am 05:52 Mostly Cloudy 62 16.7 53 11.7 73 73 Calm 30.24 1024 10 16 0.00 0.00
6:52 am 06:52 Mostly Sunny 64 17.8 54 12.2 70 70 Calm 30.25 1024 10 16 0.00 0.00
7:52 am 07:52 Sunny 66 18.9 53 11.7 63 63 SW 5 7 30.25 1024 10 16 0.00 0.00
8:52 am 08:52 Mostly Sunny 73 22.8 54 12.2 51 51 W 6 9 30.26 1025 10 16 0.00 0.00
9:52 am 09:52 Sunny 76 24.4 53 11.7 45 45 W 8 13 30.26 1025 10 16 0.00 0.00
10:52 am 10:52 Sunny 77 25 56 13.3 48 48 NW 9 15 30.27 1025 10 16 0.00 0.00
11:52 am 11:52 Sunny 78 25.6 56 13.3 47 47 WNW 8 13 30.26 1025 10 16 0.00 0.00
12:52 pm 12:52 Sunny 79 26.1 56 13.3 45 45 NW 8 13 30.25 1025 10 16 0.00 0.00
1:52 pm 13:52 Sunny 80 26.7 57 13.9 45 45 NW 6 9 30.24 1024 10 16 0.00 0.00
2:52 pm 14:52 Sunny 81 27.2 57 13.9 44 44 NW 7 11 30.22 1024 10 16 0.00 0.00
3:52 pm 15:52 Sunny 82 27.8 58 14.4 44 44 W 9 15 30.22 1023 10 16 0.00 0.00
4:52 pm 16:52 Sunny 78 25.6 59 15 52 52 NW 8 13 30.22 1023 10 16 0.00 0.00
5:52 pm 17:52 Sunny 77 25 58 14.4 52 52 NW 7 11 30.20 1023 10 16 0.00 0.00
6:52 pm 18:52 Sunny 77 25 59 15 54 54 NNW 8 13 30.19 1023 10 16 0.00 0.00
7:52 pm 19:52 Sunny 75 23.9 57 13.9 54 54 N 9 15 30.19 1022 10 16 0.00 0.00
8:52 pm 20:52 Clear 71 21.7 57 13.9 61 61 N 7 11 30.18 1022 10 16 0.00 0.00
9:52 pm 21:52 Clear 69 20.6 57 13.9 66 66 N 7 11 30.19 1022 10 16 0.00 0.00
10:52 pm 22:52 Cloudy 69 20.6 55 12.8 61 61 NE 5 7 30.19 1022 10 16 0.00 0.00
11:52 pm 23:52 Mostly Cloudy 70 21.1 56 13.3 61 61 Calm 30.20 1023 10 16 0.00 0.00

Powered by AerisWeather